Tracking 20719 objects as of 26-May-2020
HD Live streaming from Space Station
objects crossing your sky now

COSMOS 2023 (GLONASS)

Track COSMOS 2023 (GLONASS) now!
COSMOS 2023 (GLONASS) is classified as:


NORAD ID: 20025
Int'l Code: 1989-039B
Perigee: 19,091.3 km
Apogee: 19,182.5 km
Inclination: 65.5 °
Period: 675.7 minutes
Semi major axis: 25507 km
RCS: 1.297 m2 (large)
Launch date: May 31, 1989
Source: Commonwealth of Independent States (former USSR) (CIS)
Launch site: TYURATAM MISSILE AND SPACE COMPLEX (TTMTR)
aabbcc
Your satellite tracking list
Your tracking list is empty




NASA's NSSDC Master Catalog

Two Line Element Set (TLE):
1 20025U 89039B   20141.27712983 -.00000066 +00000-0 +00000-0 0  9998
2 20025 065.4859 026.6119 0017875 200.2288 339.2642 02.13104040240979
Source of the keplerian elements: AFSPC